Weather History for KCON - November, 2013

Change the Weather History Date:

Monday, November 18, 2013

  Actual Average Record
Temperature  
Mean Temperature 53 °F 38 °F  
Max Temperature 63 °F 47 °F 71 °F (1953)
Min Temperature 42 °F 28 °F 10 °F (1904)
Degree Days  
Heating Degree Days 12 27  
Month to date heating degree days 451 442  
Since 1 July heating degree days 1166 1201  
Cooling Degree Days 0 0  
Month to date cooling degree days 0 0  
Year to date cooling degree days 537 452  
Growing Degree Days 1 (Base 50)    
Moisture  
Dew Point 45 °F    
Average Humidity 67    
Maximum Humidity 100    
Minimum Humidity 34    
Precipitation  
Precipitation 0.31 in 0.13 in 1.16 in (1968)
Month to date precipitation 0.82 2.27  
Year to date precipitation 35.20 35.96  
Snow  
Snow 0.00 in 0.10 in 8.30 in (1980)
Month to date snowfall T 0.8  
Since 1 July snowfall T 0.8  
Since 1 September snowfall T 0.8  
Snow Depth 0.00 in    
Sea Level Pressure  
Sea Level Pressure 29.59 in    
Wind  
Wind Speed 8 mph (SW)    
Max Wind Speed 21 mph    
Max Gust Speed 29 mph    
Visibility 6 miles    
Events Fog , Rain    
T = Trace of Precipitation, MM = Missing Value Source: NWS Daily Summary

Daily Weather History Graph

Daily Weather History Graph

Search for Another Location

Airport or City:

Trip Planner

Search our weather history database for the weather conditions in past years. The results will help you decide how hot, cold, wet, or windy it might be!

Date:

Astronomy

Nov. 18, 2013 Rise Set
Actual Time 6:42 AM EST 4:19 PM EST
Civil Twilight 6:12 AM EST 4:50 PM EST
Nautical Twilight 5:37 AM EST 5:24 PM EST
Astronomical Twilight 5:03 AM EST 5:58 PM EST
Moon 5:18 PM EST (11/18) 7:29 AM EST (11/18)
Length of Visible Light 10h 37m
Length of Day
9h 36m
Full, 99% of the Moon is Illuminated
Nov 18
Full
Nov 25
Last Quarter
Dec 2
New
Dec 9
First Quarter
Dec 17
Full

Hourly Weather History & Observations

Time (EST) Temp. Windchill Dew Point Humidity Pressure Visibility Wind Dir Wind Speed Gust Speed Precip Events Conditions
12:51 AM 42.1 °F - 42.1 °F 100% 29.82 in 0.5 mi Calm Calm - 0.00 in Fog , Rain Light Rain
1:10 AM 42.8 °F - 42.8 °F 100% 29.78 in 0.5 mi Calm Calm - 0.01 in Fog , Rain Light Rain
1:51 AM 42.1 °F 40.2 °F 42.1 °F 100% 29.77 in 1.0 mi West 3.5 mph - 0.03 in Rain Light Rain
2:11 AM 42.8 °F - 42.8 °F 100% 29.73 in 0.8 mi Calm Calm - 0.00 in   Overcast
2:51 AM 43.0 °F - 43.0 °F 100% 29.69 in 0.8 mi Calm Calm - 0.01 in   Overcast
3:16 AM 42.8 °F 41.1 °F 42.8 °F 100% 29.67 in 0.8 mi West 3.5 mph - 0.01 in   Mist
3:51 AM 48.0 °F - 48.0 °F 100% 29.64 in 0.5 mi South 5.8 mph - 0.01 in Fog Fog
4:07 AM 51.8 °F - 51.8 °F 100% 29.62 in 1.5 mi SSE 11.5 mph - 0.00 in Rain Light Rain
4:13 AM 51.8 °F - 51.8 °F 100% 29.61 in 3.0 mi SSE 8.1 mph - 0.00 in   Overcast
4:26 AM 51.8 °F - 51.8 °F 100% 29.59 in 5.0 mi South 6.9 mph - 0.00 in   Overcast
4:51 AM 53.1 °F - 53.1 °F 100% 29.57 in 4.0 mi SSE 10.4 mph - 0.00 in   Overcast
5:07 AM 53.6 °F - 53.6 °F 100% 29.54 in 5.0 mi SSE 10.4 mph - N/A   Overcast
5:19 AM 55.4 °F - 55.4 °F 100% 29.53 in 8.0 mi South 12.7 mph 18.4 mph 0.00 in Rain Light Rain
5:41 AM 57.2 °F - 57.2 °F 100% 29.50 in 2.5 mi South 18.4 mph 28.8 mph 0.07 in Rain Heavy Rain
5:51 AM 57.0 °F - 57.0 °F 100% 29.50 in 4.0 mi SSE 16.1 mph 26.5 mph 0.12 in Rain Rain
6:25 AM 57.2 °F - 57.2 °F 100% 29.50 in 6.0 mi South 13.8 mph - 0.07 in Rain Light Rain
6:38 AM 59.0 °F - 57.2 °F 94% 29.50 in 6.0 mi South 15.0 mph 21.9 mph 0.08 in Rain Light Rain
6:51 AM 57.9 °F - 57.9 °F 100% 29.55 in 2.5 mi West 13.8 mph 23.0 mph 0.10 in Rain Heavy Rain
6:56 AM 57.2 °F - 55.4 °F 94% 29.54 in 3.0 mi SW 12.7 mph 23.0 mph 0.03 in Rain Light Rain
7:01 AM 57.2 °F - 55.4 °F 94% 29.54 in 6.0 mi SW 11.5 mph 20.7 mph 0.03 in Rain Light Rain
7:51 AM 57.0 °F - 54.0 °F 89% 29.51 in 10.0 mi South 3.5 mph - 0.03 in   Overcast
8:51 AM 54.0 °F - 48.9 °F 83% 29.53 in 10.0 mi SW 4.6 mph - 0.01 in Rain Light Rain
9:51 AM 59.0 °F - 44.1 °F 58% 29.54 in 10.0 mi WSW 16.1 mph 27.6 mph 0.00 in   Clear
10:51 AM 60.1 °F - 42.1 °F 51% 29.53 in 10.0 mi West 11.5 mph 25.3 mph N/A   Clear
11:51 AM 62.1 °F - 41.0 °F 46% 29.52 in 10.0 mi WSW 11.5 mph - N/A   Mostly Cloudy
12:51 PM 62.1 °F - 37.9 °F 41% 29.52 in 10.0 mi West 16.1 mph 21.9 mph N/A   Clear
1:51 PM 63.0 °F - 37.9 °F 40% 29.52 in 10.0 mi West 10.4 mph 16.1 mph N/A   Partly Cloudy
2:51 PM 62.1 °F - 34.0 °F 35% 29.53 in 10.0 mi West 5.8 mph 16.1 mph N/A   Clear
3:51 PM 59.0 °F - 34.0 °F 39% 29.54 in 10.0 mi West 4.6 mph - N/A   Clear
4:51 PM 52.0 °F - 35.1 °F 53% 29.56 in 10.0 mi Calm Calm - N/A   Clear
5:51 PM 46.9 °F - 37.0 °F 68% 29.57 in 10.0 mi Calm Calm - N/A   Mostly Cloudy
6:51 PM 46.9 °F - 42.1 °F 83% 29.59 in 10.0 mi Calm Calm - 0.00 in Rain Light Rain
7:51 PM 48.0 °F - 41.0 °F 77% 29.60 in 10.0 mi Calm Calm - 0.00 in   Overcast
8:51 PM 48.9 °F - 36.0 °F 61% 29.62 in 10.0 mi WNW 13.8 mph 20.7 mph N/A   Partly Cloudy
9:51 PM 48.0 °F - 30.9 °F 52% 29.61 in 10.0 mi WNW 11.5 mph 23.0 mph N/A   Clear
10:51 PM 45.0 °F 40.1 °F 32.0 °F 60% 29.63 in 10.0 mi West 9.2 mph - N/A   Clear
11:51 PM 44.1 °F 41.5 °F 30.0 °F 58% 29.64 in 10.0 mi West 4.6 mph - N/A   Partly Cloudy